Millville, NJ

4:29 AM EST on November 19, 2017 (GMT -0500)
Millville Municipal

Weather History for KMIV - May, 2014

Change the Weather History Date:

Monday, May 12, 2014

  Actual Average Record
Temperature  
Mean Temperature 66 °F -  
Max Temperature 82 °F 73 °F 88 °F (1970)
Min Temperature 51 °F 50 °F 35 °F (1990)
Cooling Degree Days 2    
Growing Degree Days 16 (Base 50)    
Moisture  
Dew Point 57 °F    
Average Humidity 70    
Maximum Humidity 96    
Minimum Humidity 49    
Precipitation  
Precipitation 0.01 in - - ()
Sea Level Pressure  
Sea Level Pressure 30.10 in    
Wind  
Wind Speed 3 mph (SSE)    
Max Wind Speed 12 mph    
Max Gust Speed -    
Visibility 10 miles    
Events Rain    
Averages and records for this station are not official NWS values.
T = Trace of Precipitation, MM = Missing Value Source: NWS Daily Summary

Daily Weather History Graph

Daily Weather History Graph

Search for Another Location

Airport or City:

Trip Planner

Search our weather history database for the weather conditions in past years. The results will help you decide how hot, cold, wet, or windy it might be!

Date:

Astronomy

May. 12, 2014 Rise Set
Actual Time 5:49 AM EDT 8:04 PM EDT
Civil Twilight 5:19 AM EDT 8:34 PM EDT
Nautical Twilight 4:42 AM EDT 9:11 PM EDT
Astronomical Twilight 4:02 AM EDT 9:52 PM EDT
Moon 6:00 PM EDT (5/12) 4:26 AM EDT (5/12)
Length of Visible Light 15h 14m
Length of Day
14h 14m
Waxing Gibbous, 95% of the Moon is Illuminated
May 12
Waxing Gibbous
May 14
Full
May 21
Last Quarter
May 28
New
Jun 5
First Quarter

Hourly Weather History & Observations

Time (EDT) Temp. Heat Index Dew Point Humidity Pressure Visibility Wind Dir Wind Speed Gust Speed Precip Events Conditions
12:54 AM 54.0 °F - 50.0 °F 86% 30.13 in 10.0 mi Calm Calm - N/A   Clear
1:54 AM 52.0 °F - 48.9 °F 89% 30.12 in 10.0 mi Calm Calm - N/A   Clear
2:54 AM 51.1 °F - 50.0 °F 96% 30.11 in 10.0 mi Calm Calm - N/A   Clear
3:54 AM 54.0 °F - 51.1 °F 90% 30.11 in 10.0 mi Calm Calm - N/A   Clear
4:54 AM 51.1 °F - 50.0 °F 96% 30.11 in 9.0 mi Calm Calm - N/A   Clear
5:54 AM 53.1 °F - 50.0 °F 89% 30.12 in 10.0 mi Calm Calm - N/A   Clear
6:54 AM 57.0 °F - 54.0 °F 89% 30.14 in 10.0 mi Calm Calm - N/A   Clear
7:54 AM 68.0 °F - 59.0 °F 73% 30.14 in 10.0 mi Variable 4.6 mph - N/A   Clear
8:54 AM 73.0 °F - 59.0 °F 61% 30.15 in 10.0 mi Variable 6.9 mph - N/A   Clear
10:54 AM 80.1 °F 81.2 °F 62.1 °F 54% 30.13 in 10.0 mi Variable 6.9 mph - N/A   Clear
11:54 AM 81.0 °F 82.2 °F 63.0 °F 54% 30.13 in 10.0 mi Variable 6.9 mph - N/A   Clear
12:54 PM 82.0 °F 83.0 °F 62.1 °F 51% 30.11 in 10.0 mi South 8.1 mph - N/A   Clear
1:54 PM 82.9 °F 83.7 °F 62.1 °F 49% 30.10 in 10.0 mi SSE 11.5 mph - N/A   Clear
2:54 PM 82.9 °F 83.7 °F 62.1 °F 49% 30.09 in 10.0 mi South 9.2 mph - N/A   Clear
3:54 PM 80.1 °F 81.2 °F 62.1 °F 54% 30.06 in 10.0 mi South 8.1 mph - N/A   Mostly Cloudy
4:54 PM 82.0 °F 83.4 °F 64.0 °F 54% 30.05 in 10.0 mi Variable 6.9 mph - N/A   Clear
5:54 PM 80.1 °F 81.7 °F 64.0 °F 58% 30.05 in 10.0 mi Variable 3.5 mph - N/A   Partly Cloudy
6:54 PM - - - N/A% 30.05 in 10.0 mi Calm Calm - N/A   Overcast
7:54 PM - - - N/A% 30.06 in 10.0 mi SSE 4.6 mph - N/A   Mostly Cloudy
8:54 PM - - - N/A% 30.08 in 10.0 mi SSW 3.5 mph - 0.01 in Rain Light Rain
9:54 PM - - - N/A% 30.07 in 9.0 mi Calm Calm - 0.00 in   Clear
10:54 PM - - - N/A% 30.08 in 9.0 mi ESE 3.5 mph - N/A   Clear
11:54 PM - - - N/A% 30.06 in 7.0 mi Calm Calm - N/A   Clear